Time,TemperatureF,DewpointF,PressureIn,WindDirection,WindDirectionDegrees,WindSpeedMPH,WindSpeedGustMPH,Humidity,HourlyPrecipIn,Conditions,Clouds,dailyrainin,SoftwareType,DateUTC
2013-02-28 00:02:00,33.0,30.0,29.70,WSW,247,4.0,9.0,87,0.00,,,0.01,,2013-02-28 05:02:00,
2013-02-28 00:11:00,33.0,30.0,29.70,WSW,247,4.0,9.0,87,0.00,,,0.01,,2013-02-28 05:11:00,
2013-02-28 00:22:00,33.0,30.0,29.70,South,180,5.0,14.0,87,0.00,,,0.01,,2013-02-28 05:22:00,
2013-02-28 00:32:00,33.0,29.0,29.70,SW,220,1.0,10.0,86,0.00,,,0.01,,2013-02-28 05:32:00,
2013-02-28 00:42:00,33.0,29.0,29.70,SW,220,1.0,10.0,86,0.00,,,0.01,,2013-02-28 05:42:00,
2013-02-28 00:52:00,33.0,29.0,29.70,SW,220,1.0,5.0,86,0.00,,,0.01,,2013-02-28 05:52:00,
2013-02-28 01:01:00,32.0,28.0,29.70,WSW,257,2.0,10.0,86,0.00,,,0.01,,2013-02-28 06:01:00,
2013-02-28 01:11:00,32.0,28.0,29.70,WSW,257,2.0,10.0,86,0.00,,,0.01,,2013-02-28 06:11:00,
2013-02-28 01:22:00,32.0,28.0,29.69,WSW,256,1.0,5.0,86,0.00,,,0.01,,2013-02-28 06:22:00,
2013-02-28 01:32:00,32.0,28.0,29.69,WSW,252,3.0,7.0,85,0.00,,,0.01,,2013-02-28 06:32:00,
2013-02-28 01:42:00,32.0,28.0,29.69,WSW,252,3.0,7.0,85,0.00,,,0.01,,2013-02-28 06:42:00,
2013-02-28 01:52:00,32.0,28.0,29.69,WSW,250,2.0,8.0,86,0.00,,,0.01,,2013-02-28 06:52:00,
2013-02-28 02:01:00,32.0,28.0,29.70,WSW,252,4.0,11.0,85,0.00,,,0.01,,2013-02-28 07:01:00,
2013-02-28 02:11:00,32.0,28.0,29.70,WSW,252,4.0,11.0,85,0.00,,,0.01,,2013-02-28 07:11:00,
2013-02-28 02:21:00,32.0,28.0,29.70,WSW,254,1.0,9.0,85,0.00,,,0.01,,2013-02-28 07:21:00,
2013-02-28 02:32:00,32.0,28.0,29.70,WSW,254,1.0,11.0,84,0.00,,,0.01,,2013-02-28 07:32:00,
2013-02-28 02:42:00,32.0,28.0,29.70,WSW,254,1.0,11.0,84,0.00,,,0.01,,2013-02-28 07:42:00,
2013-02-28 02:51:00,32.0,28.0,29.70,WSW,254,3.0,8.0,84,0.00,,,0.01,,2013-02-28 07:51:00,
2013-02-28 03:01:00,32.0,28.0,29.69,WSW,254,2.0,9.0,84,0.00,,,0.01,,2013-02-28 08:01:00,
2013-02-28 03:11:00,32.0,28.0,29.69,WSW,254,2.0,9.0,84,0.00,,,0.01,,2013-02-28 08:11:00,
2013-02-28 03:22:00,32.0,28.0,29.69,WSW,254,1.0,7.0,84,0.00,,,0.01,,2013-02-28 08:22:00,
2013-02-28 03:32:00,32.0,28.0,29.69,WSW,254,3.0,10.0,84,0.00,,,0.01,,2013-02-28 08:32:00,
2013-02-28 03:42:00,32.0,28.0,29.69,WSW,254,3.0,10.0,84,0.00,,,0.01,,2013-02-28 08:42:00,
2013-02-28 03:52:00,32.0,28.0,29.69,WSW,254,3.0,10.0,84,0.00,,,0.01,,2013-02-28 08:52:00,
2013-02-28 04:03:00,33.0,29.0,29.69,West,266,3.0,10.0,84,0.00,,,0.01,,2013-02-28 09:03:00,
2013-02-28 04:12:00,33.0,29.0,29.69,West,266,3.0,10.0,84,0.00,,,0.01,,2013-02-28 09:12:00,
2013-02-28 04:22:00,32.0,28.0,29.69,West,266,2.0,9.0,84,0.00,,,0.01,,2013-02-28 09:22:00,
2013-02-28 04:32:00,32.0,27.0,29.69,West,267,2.0,10.0,83,0.00,,,0.01,,2013-02-28 09:32:00,
2013-02-28 04:42:00,32.0,27.0,29.69,West,267,2.0,10.0,83,0.00,,,0.01,,2013-02-28 09:42:00,
2013-02-28 04:52:00,32.0,27.0,29.69,West,266,2.0,10.0,83,0.00,,,0.01,,2013-02-28 09:52:00,
2013-02-28 05:02:00,32.0,28.0,29.69,West,267,2.0,8.0,84,0.00,,,0.01,,2013-02-28 10:02:00,
2013-02-28 05:11:00,32.0,28.0,29.70,West,266,6.0,13.0,84,0.00,,,0.01,,2013-02-28 10:11:00,
2013-02-28 05:22:00,32.0,28.0,29.70,West,266,6.0,13.0,84,0.00,,,0.01,,2013-02-28 10:22:00,
2013-02-28 05:32:00,32.0,28.0,29.70,West,266,1.0,8.0,85,0.00,,,0.01,,2013-02-28 10:32:00,
2013-02-28 05:42:00,32.0,28.0,29.70,West,266,1.0,8.0,85,0.00,,,0.01,,2013-02-28 10:42:00,
2013-02-28 05:52:00,32.0,28.0,29.70,West,266,2.0,8.0,85,0.00,,,0.01,,2013-02-28 10:52:00,
2013-02-28 06:02:00,32.0,28.0,29.71,West,266,2.0,7.0,85,0.00,,,0.01,,2013-02-28 11:02:00,
2013-02-28 06:11:00,32.0,28.0,29.71,West,266,2.0,7.0,85,0.00,,,0.01,,2013-02-28 11:11:00,
2013-02-28 06:22:00,32.0,28.0,29.71,West,267,2.0,8.0,86,0.00,,,0.01,,2013-02-28 11:22:00,
2013-02-28 06:32:00,32.0,28.0,29.72,West,266,4.0,8.0,86,0.00,,,0.01,,2013-02-28 11:32:00,
2013-02-28 06:42:00,32.0,28.0,29.72,West,266,4.0,8.0,86,0.00,,,0.01,,2013-02-28 11:42:00,
2013-02-28 06:52:00,32.0,28.0,29.72,West,266,2.0,7.0,86,0.00,,,0.01,,2013-02-28 11:52:00,
2013-02-28 07:02:00,32.0,28.0,29.72,West,266,0.0,11.0,86,0.00,,,0.01,,2013-02-28 12:02:00,
2013-02-28 07:11:00,32.0,28.0,29.72,West,266,0.0,11.0,86,0.00,,,0.01,,2013-02-28 12:11:00,
2013-02-28 07:22:00,32.0,28.0,29.72,West,267,4.0,9.0,86,0.00,,,0.01,,2013-02-28 12:22:00,
2013-02-28 07:32:00,32.0,28.0,29.72,West,267,4.0,11.0,86,0.00,,,0.01,,2013-02-28 12:32:00,
2013-02-28 07:42:00,32.0,28.0,29.72,West,267,4.0,11.0,86,0.00,,,0.01,,2013-02-28 12:42:00,
2013-02-28 07:52:00,32.0,28.0,29.72,West,267,4.0,9.0,86,0.00,,,0.01,,2013-02-28 12:52:00,
2013-02-28 08:02:00,32.0,28.0,29.73,West,267,2.0,13.0,86,0.00,,,0.01,,2013-02-28 13:02:00,
2013-02-28 08:11:00,32.0,29.0,29.73,West,267,1.0,11.0,87,0.00,,,0.01,,2013-02-28 13:11:00,
2013-02-28 08:22:00,32.0,29.0,29.73,West,267,1.0,11.0,87,0.00,,,0.01,,2013-02-28 13:22:00,
2013-02-28 08:32:00,32.0,29.0,29.74,West,267,2.0,9.0,87,0.01,,,0.02,,2013-02-28 13:32:00,
2013-02-28 08:42:00,32.0,29.0,29.74,West,267,2.0,9.0,87,0.01,,,0.02,,2013-02-28 13:42:00,
2013-02-28 08:52:00,32.0,29.0,29.75,West,276,2.0,11.0,87,0.01,,,0.02,,2013-02-28 13:52:00,
2013-02-28 09:02:00,32.0,29.0,29.75,WSW,258,3.0,9.0,87,0.01,,,0.02,,2013-02-28 14:02:00,
2013-02-28 09:11:00,32.0,29.0,29.75,WSW,251,1.0,7.0,88,0.01,,,0.02,,2013-02-28 14:11:00,
2013-02-28 09:22:00,32.0,29.0,29.75,WSW,251,1.0,7.0,88,0.01,,,0.02,,2013-02-28 14:22:00,
2013-02-28 09:32:00,32.0,29.0,29.75,West,269,4.0,13.0,88,0.00,,,0.02,,2013-02-28 14:32:00,
2013-02-28 09:42:00,33.0,30.0,29.76,WSW,245,4.0,11.0,88,0.00,,,0.02,,2013-02-28 14:42:00,
2013-02-28 09:52:00,33.0,30.0,29.76,WSW,245,4.0,11.0,88,0.00,,,0.02,,2013-02-28 14:52:00,
2013-02-28 10:02:00,33.0,30.0,29.75,West,266,1.0,9.0,87,0.00,,,0.02,,2013-02-28 15:02:00,
2013-02-28 10:11:00,33.0,30.0,29.75,WSW,258,3.0,11.0,87,0.00,,,0.02,,2013-02-28 15:11:00,
2013-02-28 10:22:00,33.0,30.0,29.75,WSW,258,3.0,11.0,87,0.00,,,0.02,,2013-02-28 15:22:00,
2013-02-28 10:32:00,33.0,30.0,29.76,WSW,258,3.0,11.0,87,0.00,,,0.02,,2013-02-28 15:32:00,
2013-02-28 10:42:00,33.0,30.0,29.76,WSW,258,3.0,11.0,87,0.00,,,0.02,,2013-02-28 15:42:00,
2013-02-28 10:52:00,33.0,30.0,29.77,West,263,4.0,12.0,87,0.00,,,0.01,,2013-02-28 15:52:00,
2013-02-28 11:02:00,34.0,31.0,29.77,WSW,257,4.0,9.0,87,0.00,,,0.01,,2013-02-28 16:02:00,
2013-02-28 11:12:00,34.0,31.0,29.77,West,262,4.0,10.0,87,0.00,,,0.01,,2013-02-28 16:12:00,
2013-02-28 11:22:00,34.0,31.0,29.77,West,262,4.0,10.0,87,0.00,,,0.01,,2013-02-28 16:22:00,
2013-02-28 11:32:00,34.0,31.0,29.79,WSW,256,6.0,13.0,87,0.00,,,0.01,,2013-02-28 16:32:00,
2013-02-28 11:42:00,34.0,31.0,29.79,WSW,256,6.0,13.0,87,0.00,,,0.01,,2013-02-28 16:42:00,
2013-02-28 11:52:00,34.0,31.0,29.79,West,280,3.0,9.0,87,0.00,,,0.01,,2013-02-28 16:52:00,
2013-02-28 12:02:00,34.0,31.0,29.79,West,265,4.0,10.0,87,0.00,,,0.01,,2013-02-28 17:02:00,
2013-02-28 12:12:00,34.0,30.0,29.80,West,269,2.0,12.0,86,0.00,,,0.01,,2013-02-28 17:12:00,
2013-02-28 12:22:00,34.0,30.0,29.80,West,269,2.0,12.0,86,0.00,,,0.01,,2013-02-28 17:22:00,
2013-02-28 12:32:00,34.0,30.0,29.80,West,270,5.0,14.0,86,0.00,,,0.01,,2013-02-28 17:32:00,
2013-02-28 12:42:00,34.0,30.0,29.79,West,262,4.0,11.0,86,0.00,,,0.01,,2013-02-28 17:42:00,
2013-02-28 12:52:00,34.0,30.0,29.79,West,262,4.0,11.0,86,0.00,,,0.01,,2013-02-28 17:52:00,
2013-02-28 13:02:00,35.0,31.0,29.79,West,261,5.0,11.0,86,0.00,,,0.01,,2013-02-28 18:02:00,
2013-02-28 13:11:00,35.0,31.0,29.80,West,272,4.0,14.0,86,0.00,,,0.01,,2013-02-28 18:11:00,
2013-02-28 13:22:00,35.0,31.0,29.80,West,272,4.0,14.0,86,0.00,,,0.01,,2013-02-28 18:22:00,
2013-02-28 13:32:00,35.0,31.0,29.79,West,280,3.0,13.0,86,0.00,,,0.01,,2013-02-28 18:32:00,
2013-02-28 13:42:00,35.0,31.0,29.79,West,276,6.0,13.0,86,0.00,,,0.01,,2013-02-28 18:42:00,
2013-02-28 13:52:00,35.0,31.0,29.79,West,276,6.0,13.0,86,0.00,,,0.01,,2013-02-28 18:52:00,
2013-02-28 14:02:00,35.0,31.0,29.80,West,268,5.0,11.0,86,0.00,,,0.01,,2013-02-28 19:02:00,
2013-02-28 14:11:00,35.0,31.0,29.80,West,281,2.0,11.0,86,0.00,,,0.01,,2013-02-28 19:11:00,
2013-02-28 14:22:00,35.0,31.0,29.80,West,281,2.0,11.0,86,0.00,,,0.01,,2013-02-28 19:22:00,
2013-02-28 14:32:00,35.0,31.0,29.80,West,273,4.0,12.0,86,0.00,,,0.01,,2013-02-28 19:32:00,
2013-02-28 14:42:00,35.0,31.0,29.80,West,273,4.0,12.0,86,0.00,,,0.01,,2013-02-28 19:42:00,
2013-02-28 14:52:00,35.0,31.0,29.80,West,274,5.0,9.0,86,0.00,,,0.01,,2013-02-28 19:52:00,
2013-02-28 15:01:00,36.0,32.0,29.80,West,267,5.0,12.0,85,0.00,,,0.01,,2013-02-28 20:01:00,
2013-02-28 15:12:00,36.0,32.0,29.81,West,261,3.0,10.0,85,0.00,,,0.01,,2013-02-28 20:12:00,
2013-02-28 15:22:00,36.0,32.0,29.81,West,261,3.0,10.0,85,0.00,,,0.01,,2013-02-28 20:22:00,
2013-02-28 15:32:00,36.0,32.0,29.82,West,277,4.0,11.0,85,0.00,,,0.01,,2013-02-28 20:32:00,
2013-02-28 15:42:00,36.0,32.0,29.82,West,277,4.0,11.0,85,0.00,,,0.01,,2013-02-28 20:42:00,
2013-02-28 15:52:00,36.0,32.0,29.81,WNW,285,6.0,10.0,85,0.00,,,0.01,,2013-02-28 20:52:00,
2013-02-28 16:02:00,36.0,32.0,29.82,West,279,3.0,12.0,85,0.00,,,0.01,,2013-02-28 21:02:00,
2013-02-28 16:11:00,36.0,32.0,29.83,West,277,2.0,9.0,85,0.00,,,0.01,,2013-02-28 21:11:00,
2013-02-28 16:22:00,36.0,32.0,29.83,West,277,2.0,9.0,85,0.00,,,0.01,,2013-02-28 21:22:00,
2013-02-28 16:32:00,36.0,32.0,29.83,West,270,5.0,10.0,85,0.00,,,0.01,,2013-02-28 21:32:00,
2013-02-28 16:42:00,36.0,32.0,29.83,West,270,5.0,10.0,85,0.00,,,0.01,,2013-02-28 21:42:00,
2013-02-28 16:52:00,36.0,32.0,29.84,West,268,4.0,10.0,85,0.00,,,0.01,,2013-02-28 21:52:00,
2013-02-28 17:01:00,36.0,32.0,29.84,West,267,3.0,11.0,84,0.00,,,0.01,,2013-02-28 22:01:00,
2013-02-28 17:11:00,36.0,32.0,29.85,West,274,5.0,8.0,84,0.00,,,0.01,,2013-02-28 22:11:00,
2013-02-28 17:22:00,36.0,32.0,29.85,West,274,5.0,8.0,84,0.00,,,0.01,,2013-02-28 22:22:00,
2013-02-28 17:32:00,36.0,32.0,29.85,West,275,6.0,10.0,84,0.00,,,0.01,,2013-02-28 22:32:00,
2013-02-28 17:42:00,36.0,32.0,29.85,West,275,6.0,10.0,84,0.00,,,0.01,,2013-02-28 22:42:00,
2013-02-28 17:52:00,36.0,32.0,29.86,West,265,6.0,10.0,85,0.00,,,0.01,,2013-02-28 22:52:00,
2013-02-28 18:01:00,36.0,32.0,29.87,West,277,4.0,10.0,85,0.00,,,0.01,,2013-02-28 23:01:00,
2013-02-28 18:11:00,36.0,32.0,29.88,West,273,3.0,7.0,85,0.00,,,0.01,,2013-02-28 23:11:00,
2013-02-28 18:22:00,36.0,32.0,29.88,West,273,3.0,7.0,85,0.00,,,0.01,,2013-02-28 23:22:00,
2013-02-28 18:32:00,36.0,32.0,29.88,West,273,2.0,7.0,85,0.00,,,0.01,,2013-02-28 23:32:00,
2013-02-28 18:42:00,36.0,32.0,29.88,West,273,2.0,7.0,85,0.00,,,0.01,,2013-02-28 23:42:00,
2013-02-28 18:52:00,36.0,32.0,29.88,West,273,4.0,7.0,86,0.00,,,0.01,,2013-02-28 23:52:00,
2013-02-28 19:02:00,36.0,32.0,29.89,West,273,4.0,7.0,86,0.00,,,0.01,,2013-03-01 00:02:00,
2013-02-28 19:11:00,36.0,32.0,29.89,West,273,1.0,4.0,85,0.00,,,0.01,,2013-03-01 00:11:00,
2013-02-28 19:22:00,36.0,32.0,29.89,West,273,1.0,4.0,85,0.00,,,0.01,,2013-03-01 00:22:00,
2013-02-28 19:32:00,36.0,32.0,29.89,West,273,2.0,4.0,85,0.00,,,0.01,,2013-03-01 00:32:00,
2013-02-28 19:42:00,36.0,32.0,29.89,West,273,2.0,4.0,85,0.00,,,0.01,,2013-03-01 00:42:00,
2013-02-28 19:51:00,36.0,32.0,29.89,West,273,0.0,4.0,85,0.00,,,0.01,,2013-03-01 00:51:00,
2013-02-28 20:01:00,36.0,32.0,29.90,West,273,2.0,7.0,86,0.00,,,0.01,,2013-03-01 01:01:00,
2013-02-28 20:11:00,36.0,32.0,29.90,West,273,2.0,5.0,85,0.00,,,0.01,,2013-03-01 01:11:00,
2013-02-28 20:21:00,36.0,32.0,29.90,West,273,2.0,5.0,85,0.00,,,0.01,,2013-03-01 01:21:00,
2013-02-28 20:32:00,36.0,32.0,29.90,West,273,0.0,4.0,86,0.00,,,0.01,,2013-03-01 01:32:00,
2013-02-28 20:42:00,36.0,32.0,29.90,West,273,0.0,4.0,86,0.00,,,0.01,,2013-03-01 01:42:00,
2013-02-28 20:51:00,35.0,31.0,29.90,West,273,0.0,4.0,86,0.00,,,0.01,,2013-03-01 01:51:00,
2013-02-28 21:01:00,35.0,32.0,29.90,West,273,1.0,4.0,87,0.00,,,0.01,,2013-03-01 02:01:00,
2013-02-28 21:11:00,35.0,31.0,29.90,West,273,0.0,0.0,86,0.00,,,0.01,,2013-03-01 02:11:00,
2013-02-28 21:21:00,35.0,31.0,29.90,West,273,0.0,0.0,86,0.00,,,0.01,,2013-03-01 02:21:00,
2013-02-28 21:32:00,35.0,32.0,29.91,West,273,2.0,4.0,87,0.00,,,0.01,,2013-03-01 02:32:00,
2013-02-28 21:42:00,35.0,32.0,29.91,West,273,2.0,4.0,87,0.00,,,0.01,,2013-03-01 02:42:00,
2013-02-28 21:52:00,35.0,32.0,29.91,West,273,0.0,5.0,87,0.00,,,0.01,,2013-03-01 02:52:00,
2013-02-28 22:02:00,35.0,32.0,29.90,West,273,0.0,6.0,87,0.00,,,0.01,,2013-03-01 03:02:00,
2013-02-28 22:11:00,35.0,32.0,29.91,West,273,0.0,5.0,87,0.00,,,0.01,,2013-03-01 03:11:00,
2013-02-28 22:21:00,35.0,32.0,29.91,West,273,0.0,5.0,87,0.00,,,0.01,,2013-03-01 03:21:00,
2013-02-28 22:32:00,35.0,32.0,29.91,West,273,1.0,6.0,88,0.00,,,0.01,,2013-03-01 03:32:00,
2013-02-28 22:42:00,35.0,32.0,29.91,West,273,1.0,6.0,88,0.00,,,0.01,,2013-03-01 03:42:00,
2013-02-28 22:51:00,35.0,32.0,29.92,West,273,1.0,5.0,87,0.00,,,0.01,,2013-03-01 03:51:00,
2013-02-28 23:01:00,35.0,32.0,29.92,West,273,0.0,6.0,88,0.00,,,0.01,,2013-03-01 04:01:00,
2013-02-28 23:11:00,35.0,32.0,29.92,West,273,2.0,6.0,88,0.00,,,0.01,,2013-03-01 04:11:00,
2013-02-28 23:21:00,35.0,32.0,29.92,West,273,2.0,6.0,88,0.00,,,0.01,,2013-03-01 04:21:00,
2013-02-28 23:32:00,35.0,32.0,29.92,West,273,0.0,4.0,88,0.00,,,0.01,,2013-03-01 04:32:00,
2013-02-28 23:42:00,35.0,32.0,29.92,West,273,0.0,4.0,88,0.00,,,0.01,,2013-03-01 04:42:00,
2013-02-28 23:52:00,35.0,32.0,29.92,West,273,1.0,7.0,88,0.00,,,0.01,,2013-03-01 04:52:00,